Location: Arcones
(41.1182°N, 3.7238°W)
Time: 20:13:04
(UTC+00:00)

YAOGAN 1 - Pass Details

Date: 17 March 2026
Orbit: 604 x 606 km, 97.8° (Epoch: 21 April)

Event Time Altitude Azimuth Distance (km) Brightness Sun altitude
Rises 19:54:47 0° 212° (SSW) 2,850 6.2 -17.8°
Reaches altitude 10° 19:58:00 10° 239° (WSW) 1,953 5.7 -18.4°
Maximum altitude 20:00:07 13° 269° (W) 1,737 5.9 -18.8°
Drops below altitude 10° 20:02:14 10° 299° (WNW) 1,961 6.3 -19.2°
Sets 20:05:30 0° 326° (NNW) 2,871 6.8 -19.7°
